Miscellaneous Local Product
Issued by NWS Hastings, NE

Home | Current Version | Previous Version | Graphics & Text | Print | Product List | Glossary On
Versions: 1 2 3 4 5 6 7 8 9 10 11 12 13 14 15 16 17 18 19 20 21 22 23 24 25 26 27 28 29 30 31 32 33 34 35 36 37 38 39 40 41 42 43 44 45 46 47 48 49 50
000
AXUS43 KGID 291002
MISGRI

GID CWA HOURLY WEATHER ROUNDUP
NATIONAL WEATHER SERVICE HASTINGS NE
500 AM CDT MON AUG 29 2016

NOTE: "FAIR" INDICATES FEW OR NO CLOUDS BELOW 12,000 FEET WITH NO
SIGNIFICANT WEATHER AND/OR OBSTRUCTIONS TO VISIBILITY.

...SOUTH CENTRAL NEBRASKA...

CITY           SKY/WX    TMP DP  RH WIND       PRES   REMARKS
GRAND ISLAND   CLOUDY    67  61  81 SE15      30.11F
HASTINGS       PTCLDY    64  61  90 W8        30.11F
KEARNEY        PTCLDY    64  59  82 W3        30.13F
ORD            MOCLDY    67  60  78 SE3       30.13F
YORK           MOCLDY    64  64 100 E7        30.14R
AURORA         CLOUDY    65  64  96 CALM      30.13R
LEXINGTON      CLOUDY    67  64  88 S6        30.17F
HOLDREGE       CLOUDY    64  61  93 CALM      30.15F
HEBRON         CLOUDY    66  64  92 CALM      30.12F

...NEBRASKA PANHANDLE...

CITY           SKY/WX    TMP DP  RH WIND       PRES   REMARKS
CHADRON        PTCLDY    56  51  84 SW3       30.13S
ALLIANCE       CLEAR     55  52  89 CALM      30.17S
SCOTTSBLUFF    CLEAR     56  52  86 E6        30.18R
SIDNEY         CLOUDY    54  49  83 NW7       30.21S

...WESTERN AND NORTH CENTRAL NEBRASKA...

CITY           SKY/WX    TMP DP  RH WIND       PRES   REMARKS
VALENTINE      PTCLDY    62  56  80 W3        30.12S
AINSWORTH      CLEAR     63  61  94 S7        30.14S
ONEILL         CLEAR     68  66  92 S5        30.14S
BROKEN BOW     CLOUDY    67  64  90 S6        30.16S
IMPERIAL       CLEAR     64  61  90 CALM      30.14S
NORTH PLATTE   MOCLDY    65  63  93 SE8       30.15R
MCCOOK         TSTM      67  64  90 E12       30.17S

...EASTERN NEBRASKA...

CITY           SKY/WX    TMP DP  RH WIND       PRES   REMARKS
NORFOLK        MOCLDY    66  64  93 CALM      30.14S
SO SIOUX CITY  CLOUDY    67  64  90 SE6       30.14S
TEKAMAH        CLOUDY    66  65  96 SW3       30.14S
COLUMBUS       CLOUDY    68  59  73 SE3       30.14F
ALBION         CLOUDY    67  63  86 SE5       30.15S
OMAHA EPPLEY   CLOUDY    71  66  84 SE5       30.14S
OFFUTT AFB     CLOUDY    69  69  97 SE3       30.13F
MILLARD        CLOUDY    71  67  88 CALM      30.14F
LINCOLN        MOCLDY    70  67  90 E6        30.15S
NEBRASKA CITY  CLOUDY    68  68 100 SE3       30.15S
BEATRICE       CLOUDY    68  68  99 NE3       30.13F FOG
FALLS CITY     MOCLDY    69  68  96 CALM      30.13S

...NORTHERN KANSAS...

CITY           SKY/WX    TMP DP  RH WIND       PRES   REMARKS
GOODLAND       CLOUDY    61  59  93 SW3       30.17F
HILL CITY      CLOUDY    67  65  93 E6        30.17S
NORTON         CLOUDY    68  63  83 E6        30.17
SMITH CENTER   CLEAR     64  61  88 CALM      30.14F
BELOIT         CLEAR     64  63  94 CALM      30.12F
HAYS           CLOUDY    66  59  77 NE6       30.16S
RUSSELL        CLOUDY    67  66  97 E5        30.14F
CONCORDIA      CLOUDY    68  65  90 CALM      30.12F
SALINA         PTCLDY    72  70  93 NW5       30.13F
TOPEKA         CLEAR     72  68  87 CALM      30.13S



USA.gov is the U.S. government's official web portal to all federal, state and local government web resources and services.